THOR ABLESTAR DEB, 246

Orbit data source: Space-Track

THOR ABLESTAR DEB, 246 is space debris in LEO originally from a launch on Thu, 29 Jun 1961 UTC launched from the Air Force Eastern Test Range (AFETR). Debris objects in space refer to the collection of defunct objects orbiting the Earth. Examples of debris include non-operational satellites, rocket bodies, and fragments generated from explosions, collisions, or faulty payload assembly.

Loading next visibility...
Identifier
246, 1961-015CB
Orbit
LEO
Country
Flag of USUS
Related business
Manufacturer
Unknown
Mission
Spacecraft
Bus & Motor
Unknown
Mass
Unknown
Launch date (UTC)
1961-06-29 (64 years ago)
Launch vehicle
Unknown
Launch site
Air Force Eastern Test Range (AFETR)
Object type
Payload
Rocket body
Debris
Shape & HBR
Unknown shape, 0.2 m
Radar Cross Section
Medium (>0.1 m² and <1 m²)

Expand to show TLE details & history
Last TLE update: 18 hours ago

TLE from 18 hours ago
0 THOR ABLESTAR DEB
1 00246U 61015CB  25298.67527345  .00000029  00000-0  89127-4 0  9992
2 00246  66.8711  38.4392 0071381 295.9427  63.4307 13.86117496591363
Epoch: 2025-10-25T16:12Z
TLE epoch observation values (Epoch: 2025-10-25T16:12:23.626Z)
Latitude
0.00007°
Longitude
121.03837°
Altitude
921.271 km
Speed
7.403 km/s
True Right ascension
02h 33m 45s
True Declination
0° 00' 00"
Sunlit
Object was in full shadow at epoch
Visualization orbit readout
Latitude
Unknown
Longitude
Unknown
Altitude
Unknown
Speed
Unknown
Apparent Right ascension
Unknown
Apparent Declination
Unknown
Sunlit
N/A
Visualization observer readout
Local Sidereal Time
05:06:16
Azimuth
Unknown
Elevation
Unknown
Doppler factor
Unknown
Orbital elements
Apogee altitude
992.9 km
Perigee altitude
888.415 km
Semi-major axis
7,318.794 km
Eccentricity
0.00714
Inclination
66.8711°
RAAN
38.4392°
Arg. of periapsis
295.9427°
True anomaly
64.16519°
Mean anomaly
63.4307°
Eccentric anomaly
63.79766°
Mean motion
3.46644 °/min
Orbital period
103.85 mins
BSTAR
0.000089127
Loading maneuver chart data...
Computing Atmospheric mass density...

Documentation

Showing up to 5 results
|